#timestamp,LO_Frequency,Hit,Temp,Hum 
1487844015.9,286046977.7,N,0.0,0.0
1487844035.7,286046980.0,N,0.0,0.0
1487844055.6,286046980.4,N,0.0,0.0
1487844075.4,286046978.4,N,0.0,0.0
1487844095.2,286046978.2,N,0.0,0.0
1487844115.0,286046978.2,N,0.0,0.0
1487844115.9,286046978.2,N,0.0,0.0
1487844135.8,286046977.8,N,0.0,0.0
1487844155.6,286046977.8,N,0.0,0.0
1487844175.4,286046978.1,N,0.0,0.0
1487844195.3,286046978.3,N,0.0,0.0
1487844215.1,286046978.2,N,0.0,0.0
1487844235.8,286046977.5,N,0.0,0.0
1487844255.7,286046977.4,N,0.0,0.0
1487844275.2,286046977.8,N,0.0,0.0
1487844295.1,286046980.2,N,0.0,0.0
1487844296.0,286046980.2,N,0.0,0.0
1487844315.8,286046979.1,N,0.0,0.0
1487844335.6,286046977.4,N,0.0,0.0
1487844355.5,286046977.7,N,0.0,0.0
1487844375.3,286046977.8,N,0.0,0.0
1487844395.1,286046977.6,N,0.0,0.0
1487844415.9,286046978.0,N,0.0,0.0
1487844435.7,286046980.1,N,0.0,0.0
1487844455.5,286046979.2,N,0.0,0.0
1487844475.4,286046977.7,N,0.0,0.0
1487844495.2,286046980.3,N,0.0,0.0
1487844515.0,286046978.7,N,0.0,0.0
1487844515.9,286046978.7,N,0.0,0.0
1487844535.7,286046976.2,N,0.0,0.0
1487844555.6,286046978.1,N,0.0,0.0
1487844575.4,286046978.6,N,0.0,0.0
1487844595.2,286046976.6,N,0.0,0.0
1487844615.1,286046981.8,N,0.0,0.0
1487844616.0,286046981.8,N,0.0,0.0
1487844635.8,286046979.8,N,0.0,0.0
1487844655.6,286046979.6,N,0.0,0.0
1487844675.5,286046981.7,N,0.0,0.0
1487844695.3,286046980.3,N,0.0,0.0
1487844715.1,286046979.0,N,0.0,0.0
1487844735.9,286046981.9,N,0.0,0.0
1487844755.7,286046978.9,N,0.0,0.0
1487844775.5,286046978.6,N,0.0,0.0
1487844795.4,286046979.6,N,0.0,0.0
1487844815.2,286046979.9,N,0.0,0.0
1487844835.0,286046977.8,N,0.0,0.0
1487844835.9,286046977.8,N,0.0,0.0
1487844855.8,286046978.9,N,0.0,0.0
1487844875.6,286046981.2,N,0.0,0.0
1487844895.4,286046979.0,N,0.0,0.0
1487844915.3,286046981.6,N,0.0,0.0
1487844935.1,286046981.6,N,0.0,0.0
1487844936.0,286046981.6,N,0.0,0.0
1487844955.8,286046981.7,N,0.0,0.0
1487844975.7,286046981.0,N,0.0,0.0
1487844995.5,286046982.7,N,0.0,0.0
1487845015.3,286046980.5,Y,0.0,0.0
1487845035.2,286047005.7,N,0.0,0.0
1487845055.9,286047005.8,N,0.0,0.0
1487845075.7,286047005.9,N,0.0,0.0
1487845095.6,286047003.3,N,0.0,0.0
1487845115.4,286047004.9,N,0.0,0.0
1487845135.2,286047004.8,N,0.0,0.0
1487845155.0,286047004.6,N,0.0,0.0
1487845156.0,286047004.6,N,0.0,0.0
1487845175.8,286047007.5,N,0.0,0.0
1487845195.6,286047004.5,N,0.0,0.0
1487845215.4,286047004.8,N,0.0,0.0
1487845235.3,286047006.4,N,0.0,0.0
1487845255.1,286047007.0,N,0.0,0.0
1487845275.8,286047006.7,N,0.0,0.0
1487845295.7,286047006.6,N,0.0,0.0
1487845315.5,286047006.5,N,0.0,0.0
1487845335.3,286047008.8,N,0.0,0.0
1487845355.2,286047008.9,N,0.0,0.0
1487845375.9,286047007.5,N,0.0,0.0
1487845395.7,286047007.8,N,0.0,0.0
1487845415.6,286047008.2,N,0.0,0.0
1487845435.4,286047006.5,N,0.0,0.0
1487845455.2,286047006.3,N,0.0,0.0
1487845475.1,286047006.5,N,0.0,0.0
1487845476.0,286047006.5,N,0.0,0.0
1487845495.8,286047008.8,N,0.0,0.0
1487845515.6,286047012.1,N,0.0,0.0
1487845535.5,286047009.2,N,0.0,0.0
1487845555.3,286047009.6,N,0.0,0.0
1487845575.1,286047009.8,N,0.0,0.0
1487845595.9,286047012.4,N,0.0,0.0
1487845615.7,286047012.3,N,0.0,0.0
1487845635.5,286047012.3,N,0.0,0.0
1487845655.4,286047011.1,N,0.0,0.0
1487845675.2,286047012.3,N,0.0,0.0
1487845695.0,286047012.1,N,0.0,0.0
1487845695.9,286047012.1,N,0.0,0.0
1487845715.8,286047013.4,N,0.0,0.0
1487845735.6,286047011.0,N,0.0,0.0
1487845755.4,286047011.3,N,0.0,0.0
1487845775.2,286047011.0,N,0.0,0.0
1487845795.1,286047013.9,N,0.0,0.0
1487845796.0,286047013.9,N,0.0,0.0
1487845815.8,286047012.9,N,0.0,0.0
1487845835.6,286047015.1,N,0.0,0.0
1487845855.5,286047015.3,N,0.0,0.0
1487845875.3,286047014.5,N,0.0,0.0
1487845895.1,286047014.3,N,0.0,0.0
1487845915.9,286047016.7,N,0.0,0.0
1487845935.7,286047016.2,N,0.0,0.0
1487845955.5,286047018.6,N,0.0,0.0
1487845975.4,286047016.1,N,0.0,0.0
1487845995.2,286047018.2,N,0.0,0.0
1487846015.0,286047017.9,N,0.0,0.0
1487846015.9,286047017.9,N,0.0,0.0
1487846035.8,286047017.5,N,0.0,0.0
1487846055.6,286047019.7,N,0.0,0.0
1487846075.4,286047019.1,N,0.0,0.0
1487846095.3,286047023.3,N,0.0,0.0
1487846115.1,286047020.8,N,0.0,0.0
1487846116.0,286047020.8,N,0.0,0.0
1487846135.8,286047022.7,N,0.0,0.0
1487846155.7,286047025.2,N,0.0,0.0
1487846175.5,286047023.1,N,0.0,0.0
1487846195.3,286047022.7,N,0.0,0.0
1487846215.2,286047023.9,N,0.0,0.0
1487846235.9,286047028.0,N,0.0,0.0
1487846255.7,286047027.2,N,0.0,0.0
1487846275.6,286047029.9,N,0.0,0.0
1487846295.4,286047027.0,N,0.0,0.0
1487846315.2,286047028.5,N,0.0,0.0
1487846335.0,286047027.4,N,0.0,0.0
1487846336.0,286047027.4,N,0.0,0.0
1487846355.8,286047031.1,N,0.0,0.0
1487846375.6,286047032.6,N,0.0,0.0
1487846395.4,286047030.1,N,0.0,0.0
1487846415.3,286047030.3,N,0.0,0.0
1487846435.1,286047028.5,N,0.0,0.0
1487846455.8,286047031.2,N,0.0,0.0
1487846475.7,286047030.9,N,0.0,0.0
1487846495.5,286047032.7,N,0.0,0.0
1487846515.3,286047033.9,N,0.0,0.0
1487846535.2,286047032.8,N,0.0,0.0
1487846555.0,286047031.9,N,0.0,0.0
1487846555.9,286047031.9,N,0.0,0.0
1487846575.7,286047036.3,N,0.0,0.0
1487846595.6,286047036.3,N,0.0,0.0
1487846615.4,286047035.2,N,0.0,0.0
1487846635.2,286047034.6,N,0.0,0.0
1487846655.1,286047037.9,N,0.0,0.0
1487846656.0,286047037.9,Y,0.0,0.0
1487846675.8,286047024.1,N,0.0,0.0
1487846695.6,286047024.3,N,0.0,0.0
1487846715.5,286047025.1,N,0.0,0.0
1487846735.3,286047026.5,N,0.0,0.0
1487846755.1,286047024.9,N,0.0,0.0
1487846775.9,286047024.6,N,0.0,0.0
1487846795.7,286047024.5,N,0.0,0.0
1487846815.5,286047026.4,N,0.0,0.0
1487846835.4,286047025.8,N,0.0,0.0
1487846855.2,286047025.4,N,0.0,0.0
1487846875.0,286047028.2,N,0.0,0.0
1487846875.9,286047028.2,N,0.0,0.0
1487846895.8,286047025.3,N,0.0,0.0
1487846915.6,286047025.6,N,0.0,0.0
1487846935.4,286047028.2,N,0.0,0.0
1487846955.3,286047028.3,Y,0.0,0.0
1487846975.1,286047007.3,N,0.0,0.0
1487846995.8,286047008.4,N,0.0,0.0
1487847015.7,286047006.2,N,0.0,0.0
1487847035.5,286047009.1,N,0.0,0.0
1487847055.3,286047007.7,N,0.0,0.0
1487847075.2,286047009.1,N,0.0,0.0
1487847095.9,286047009.7,N,0.0,0.0
1487847115.7,286047010.4,N,0.0,0.0
1487847135.6,286047006.6,N,0.0,0.0
1487847155.4,286047010.7,N,0.0,0.0
1487847175.2,286047009.4,N,0.0,0.0
1487847195.1,286047009.4,N,0.0,0.0
1487847196.0,286047009.4,N,0.0,0.0
1487847215.8,286047011.2,N,0.0,0.0
1487847235.6,286047011.0,N,0.0,0.0
1487847255.5,286047013.6,N,0.0,0.0
1487847275.3,286047012.6,N,0.0,0.0
1487847295.1,286047012.5,N,0.0,0.0
1487847315.9,286047015.6,N,0.0,0.0
1487847335.7,286047014.4,N,0.0,0.0
1487847355.5,286047016.9,N,0.0,0.0
1487847375.4,286047016.4,N,0.0,0.0
1487847395.2,286047013.3,N,0.0,0.0
1487847415.0,286047014.3,N,0.0,0.0
1487847415.9,286047014.3,N,0.0,0.0
1487847435.8,286047013.3,N,0.0,0.0
1487847455.6,286047016.0,N,0.0,0.0
1487847475.4,286047012.5,N,0.0,0.0
1487847495.2,286047015.1,N,0.0,0.0
1487847515.1,286047015.1,N,0.0,0.0
1487847516.0,286047015.1,N,0.0,0.0
1487847535.8,286047014.1,N,0.0,0.0
1487847555.6,286047015.1,N,0.0,0.0
1487847575.5,286047018.5,N,0.0,0.0
1487847595.3,286047020.0,N,0.0,0.0
